User: anonymous   Login
Location: Anglesey
(53.1800°N, 4.2200°W)
Time: 21:58:15
(UTC+01:00)
Language:

N. Korean satellite - Orbit

View from above orbital plane
View from above orbital plane
View from above satellite
View from above satellite

Ground track
Ground track

The orbit data is extracted from the following two-line orbital elements,

1 39026U 12072A   18225.95983907 +.00001179 +00000-0 +46282-4 0  9994
2 39026 097.2104 234.3641 0040709 116.8803 243.6606 15.26896365314416
Epoch (UTC): 13 August 2018 23:02:10
Eccentricity: 0.0040709
inclination: 97.2104°
perigee height: 457 km
apogee height: 513 km
right ascension of ascending node: 234.3641°
argument of perigee: 116.8803°
revolutions per day: 15.26896365
mean anomaly at epoch: 243.6606°
orbit number at epoch: 31441

The dashed part of the orbit path shows where the satellite is in the earth's shadow,  

DLR